Simultaneous Nadir Overpasses (SNOs) Predictions

Prediction of SNOs between LANDSAT-8 and METOP-A Satellite Orbit:

Table of predicted SNOs for the next 14.0 days since TLE Epoch: 10/10/2020
Index Date (LANDSAT-8) Time (LANDSAT-8) Lat,Lon (LANDSAT-8) SZA (LANDSAT-8 ) Date (METOP-A) Time (METOP-A) Lat,Lon (METOP-A) SZA (METOP-A ) Distance(km) Time Diff (sec)
1 10/12/2020 11:57:14 81.45, 46.73 92.05 10/12/2020 11:56:25 81.45, 46.64 92.02 1.55 49
2 10/12/2020 12:46:41 -81.45,-145.70 87.95 10/12/2020 12:47:05 -81.44,-145.72 87.94 0.77 24
3 10/15/2020 07:31:29 81.44, 112.91 93.07 10/15/2020 07:30:47 81.45, 113.09 93.08 3.05 42
4 10/15/2020 08:20:56 -81.44, -79.50 86.92 10/15/2020 08:21:28 -81.45, -79.65 86.92 2.78 32
5 10/18/2020 03:05:44 81.45, 179.44 94.13 10/18/2020 03:05:10 81.45, 179.52 94.12 1.31 34
6 10/18/2020 03:55:11 -81.45, -12.94 85.87 10/18/2020 03:55:50 -81.44, -12.81 85.84 2.29 39
7 10/20/2020 22:39:59 81.45,-114.06 95.15 10/20/2020 22:39:33 81.45,-114.06 95.14 0.41 26
8 10/20/2020 23:29:26 -81.45, 53.58 84.84 10/20/2020 23:30:13 -81.44, 53.62 84.82 1.47 47
9 10/23/2020 18:14:13 81.45, -47.59 96.15 10/23/2020 18:13:55 81.44, -47.65 96.13 1.12 18
